Weather Roundup
Issued by NWS

Home | Current Version | Previous Version | Graphics & Text | Print | Product List | Glossary Off
Versions: 1 2 3 4 5 6 7 8 9 10 11 12 13 14 15 16 17 18 19 20 21 22 23 24 25 26 27 28 29 30 31 32 33 34 35 36 37 38 39 40 41 42 43 44 45 46 47 48 49 50

000
NZUS93 KARX 281510
HRRWXR

CURRENT HOURLY OBSERVATIONS ACROSS
MUCH OF THE UPPER MISSISSIPPI VALLEY
NATIONAL WEATHER SERVICE LA CROSSE WI
1000 AM CDT SUN MAY 28 2017


...SOUTHEAST MINNESOTA...


CITY           SKY/WX    TMP DP  RH WIND       PRES   REMARKS
ROCHESTER      SUNNY     65  48  54 NW17      29.79S
ROCHESTER/MAYO FAIR      64  45  50 W16G26    29.77S
WINONA         SUNNY     70  54  56 NW7       29.74F
AUSTIN         SUNNY     64  46  52 NW13G21   29.80S
ALBERT LEA     SUNNY     66  45  45 NW12G17   29.81S
DODGE CENTER   SUNNY     63  45  51 W15G23    29.79R
PRESTON        SUNNY     64  49  58 NW12G17   29.79S
OWATONNA       SUNNY     64  45  48 NW16G26   29.79S
FARIBAULT      SUNNY     64  46  52 W18G25    29.78S
$$

...ELSEWHERE IN MINNESOTA...


CITY           SKY/WX    TMP DP  RH WIND       PRES   REMARKS
MINNEAPOLIS    MOSUNNY   63  45  51 W17G24    29.75R
INTNL FALLS    CLOUDY    55  47  74 W6        29.64S
DULUTH         CLOUDY    55  51  86 W6        29.66S
RED WING       SUNNY     66  43  42 W14G22    29.73S
REDWOOD FALLS  SUNNY     65  44  46 W15G21    29.81S
MANKATO          N/A     64  45  49 NW21G26   29.80S
WORTHINGTON    SUNNY     65  43  44 NW13      29.86S
FAIRMONT       SUNNY     65  45  48 NW16      29.83S
$$

...SOUTHWEST WISCONSIN...


CITY           SKY/WX    TMP DP  RH WIND       PRES   REMARKS
LA CROSSE      SUNNY     69  57  65 S7        29.74F
PRAIRIE DU CHI SUNNY     69  53  57 S5        29.77F
BOSCOBEL       SUNNY     68  53  58 VRB3      29.77F
LONE ROCK      SUNNY     67  54  63 W5        29.77F
PLATTEVILLE    SUNNY     65  54  67 CALM      29.80S
FORT MC COY    SUNNY     67  52  59 SW6       29.75F
CAMP DOUGLAS   SUNNY     66  51  58 S6        29.75F
MAUSTON-NEW LI SUNNY     65  52  62 S6        29.75F
VIROQUA        FAIR      66  51  57 SW3       29.77F
WIS DELLS      SUNNY     64  51  64 CALM      29.77F
$$

...ELSEWHERE IN WISCONSIN...


CITY           SKY/WX    TMP DP  RH WIND       PRES   REMARKS
MILWAUKEE      RAIN      60  59  96 E6        29.76F FOG
MADISON        PTSUNNY   60  55  83 CALM      29.77S
GREEN BAY      RAIN      57  57 100 S6        29.76F FOG
EAU CLAIRE     MOSUNNY   66  52  60 SW13G20   29.70F
BLACK RVR FLS  FAIR      68  52  55 SW9       29.73F
MEDFORD        SUNNY     62  52  68 S10       29.72F
WAUSAU         SUNNY     62  53  72 S6        29.72F
WIS RAPIDS     SUNNY     64  53  67 SE5       29.76F
MARSHFIELD     SUNNY     65  52  62 S7        29.73F
RICE LAKE      MOSUNNY   62  50  63 SW9       29.71S
$$

...NORTHEAST IOWA...


CITY           SKY/WX    TMP DP  RH WIND       PRES   REMARKS
WATERLOO       SUNNY     69  54  58 W13       29.80F
DUBUQUE        SUNNY     67  53  61 NW7       29.80S
DECORAH        SUNNY     68  52  56 W10G18    29.77F
MASON CITY     SUNNY     67  49  52 NW12      29.84R
CHARLES CITY   SUNNY     66  54  63 NW14      29.82R
OELWEIN        SUNNY     68  55  64 W14       29.80F
$$

...ELSEWHERE IN IOWA...


CITY           SKY/WX    TMP DP  RH WIND       PRES   REMARKS
DES MOINES     MOSUNNY   70  53  54 W13       29.85F
IOWA CITY      SUNNY     69  57  65 W9        29.83F
FORT DODGE     SUNNY     66  54  63 NW6       29.86F
MARSHALLTOWN   SUNNY     67  54  63 W14       29.83S
CEDAR RAPIDS   SUNNY     68  59  73 NW9       29.81F
$$

...NORTHERN ILLINOIS...


CITY           SKY/WX    TMP DP  RH WIND       PRES   REMARKS
CHICAGO-OHARE  PTSUNNY   72  61  68 W9        29.73F
CHICAGO-MIDWAY CLOUDY    73  64  73 W7        29.73F
MOLINE         SUNNY     71  54  54 NW9G18    29.79F
ROCKFORD       CLOUDY    62  57  83 NE12      29.78F
PEORIA         CLOUDY    69  62  78 N9G17     29.78R
$$

NOTE: "FAIR" INDICATES FEW OR NO CLOUDS BELOW 12,000 FEET WITH NO
SIGNIFICANT WEATHER AND/OR OBSTRUCTIONS TO VISIBILITY. WIND
SPEEDS ARE IN MILES-PER-HOUR.




USA.gov is the U.S. government's official web portal to all federal, state and local government web resources and services.